[[{"header":{"parameterUnit":"m.s-1","parameterCategory":1,"la1":30.2991,"la2":30.254,"lo1":-89.0895,"lo2":-89.0444,"dy":0.0017,"dx":0.0017,"nx":28,"ny":28,"refTime":"2024-08-22T03:00:00:Z","depth":0,"parameterNumber":2,"parameterNumberName":"U-component_of_WINDS"},"data":[0,0,0,0,0,0,0,0,0,0,0,0,0,0,0,0,0,0,0,0,0,0,0,0,0,0,0,0,0,0,0,0,0,0,0,0,0,0,0,0,0,0,0,0,0,0,0,0,0,0,0,0,0,0,0,0,0,0,-6.4225,-6.4219,0,-6.3654,-6.3647,-6.364,-6.3203,-6.3199,-6.3195,-6.3191,-6.2574,-6.2562,-6.2549,0,0,0,0,0,0,0,0,0,0,0,0,0,-6.4913,-6.4903,-6.4226,-6.4219,-6.4211,-6.3655,-6.3647,-6.3639,-6.3203,-6.3199,-6.3194,-6.3189,-6.2578,-6.2563,-6.2548,0,0,0,0,0,0,0,0,0,0,0,0,0,-6.4505,-6.49,-6.4227,-6.3928,-6.3895,-6.3656,-6.3646,-6.3637,-6.3204,-6.3198,-6.3192,-6.3187,-6.2583,-6.2565,-6.2546,-6.2548,0,0,-6.2488,-6.2479,0,0,0,0,0,0,0,0,-6.4529,-6.448,-6.3979,-6.3948,-6.3911,-6.3494,-6.3662,-6.3271,-6.3206,-6.3466,-6.3191,-6.3184,-6.2883,-6.2839,-6.2744,-6.2519,-6.2493,-6.2486,-6.2474,-6.2466,-6.2461,0,0,0,0,0,0,0,-6.4558,-6.4502,-6.3998,-6.3972,-6.3931,-6.3813,-6.3749,-6.3586,-6.3214,-6.3443,-6.341,-6.335,-6.2863,-6.2763,-6.2726,-6.2484,-6.2486,-6.247,-6.2458,-6.245,-6.2231,-6.2236,0,0,0,0,0,0,-6.4637,-6.4529,-6.4016,-6.3981,-6.4213,-6.3806,-6.3734,-6.3633,-6.3215,-6.3146,-6.3356,-6.3332,-6.2799,-6.2749,-6.2703,-6.2676,-6.2466,-6.2448,-6.2438,-6.2225,-6.2232,-6.2238,0,0,0,0,0,0,-6.4653,-6.4595,-6.4039,-6.4246,-6.4166,-6.3801,-6.3691,-6.3625,-6.3525,-6.3149,-6.3078,-6.3324,-6.2792,-6.2729,-6.2592,-6.2648,-6.244,-6.2423,-6.2218,-6.2227,-6.2235,-6.2626,0,0,0,0,0,0,-6.4675,-6.4604,-6.4607,-6.425,-6.4157,-6.3948,-6.3695,-6.3618,-6.3497,-6.346,-6.31,-6.3034,-6.2782,-6.2623,-6.2573,-6.2618,-6.2408,-6.2211,-6.2222,-6.2232,-6.2606,-6.2646,-6.2681,0,0,0,0,0,-6.4701,-6.4732,-6.4609,-6.455,-6.4155,-6.3952,-6.3897,-6.3616,-6.3504,-6.3499,-6.3259,-6.3046,-6.2653,-6.2613,-6.2552,-6.2593,-6.2206,-6.2219,-6.2231,-6.2589,-6.2638,-6.268,0,0,0,0,0,0,-6.5092,-6.468,-6.4538,-6.4457,-6.4245,-6.3879,-6.3864,-6.3677,-6.3483,-6.3455,-6.3105,-6.3027,-6.2926,-6.2745,-6.2708,-6.2573,-6.2402,-6.2404,-6.2694,-6.2738,-6.2775,-6.2817,-6.2392,0,0,0,0,0,-6.5172,-6.5051,-6.4693,-6.4655,-6.4557,-6.4232,-6.4132,-6.3936,-6.3696,-6.36,-6.3348,-6.3116,-6.2939,-6.2829,-6.2646,-6.258,-6.2492,-6.2578,-6.2617,-6.2649,-6.2652,-6.2601,-6.2635,-6.2279,-6.2279,-6.2279,0,0,-6.5328,-6.5089,-6.5031,-6.4728,-6.454,-6.4414,-6.4157,-6.4034,-6.3934,-6.3576,-6.3434,-6.3244,-6.296,-6.286,-6.2802,-6.2705,-6.2732,-6.2665,-6.2695,-6.2677,-6.2618,-6.2652,-6.2682,-6.2288,-6.2286,-6.2285,0,0,-6.5551,-6.5361,-6.5309,-6.513,-6.4853,-6.4637,-6.4627,-6.429,-6.4153,-6.4007,-6.3737,-6.361,-6.3314,-6.3124,-6.2988,-6.315,-6.2944,-6.3099,-6.3292,-6.3247,-6.3275,-6.3298,-6.3351,-6.3375,-6.3105,-6.3106,-6.3106,0,-6.5777,-6.5587,-6.5302,-6.5199,-6.5071,-6.4757,-6.4697,-6.4533,-6.4207,-6.4122,-6.4023,-6.3649,-6.3435,-6.3285,-6.3327,-6.3229,-6.3199,-6.3134,-6.3297,-6.3317,-6.3333,-6.338,-6.3401,-6.3126,-6.3123,-6.3121,-6.3119,0,-6.5878,-6.5751,-6.5741,-6.5448,-6.5319,-6.5238,-6.4934,-6.4837,-6.4654,-6.4448,-6.4301,-6.4038,-6.3796,-6.3747,-6.3561,-6.3571,-6.352,-6.3365,-6.3183,-6.3393,-6.343,-6.3446,-6.3155,-6.3148,-6.3142,-6.3137,0,0,-6.6319,-6.5881,-6.5881,-6.5745,-6.5421,-6.5311,-6.5215,-6.4991,-6.4913,-6.47,-6.4605,-6.4368,-6.4224,-6.4071,-6.3862,-6.3825,-6.3966,-6.3671,-6.3659,-6.3731,-6.3955,-6.4071,-6.4097,-6.3833,-6.3835,-6.3837,-6.3977,0,-6.6487,-6.6307,-6.6052,-6.5953,-6.5829,-6.5533,-6.5447,-6.5236,-6.5042,-6.4901,-6.4681,-6.4518,-6.4343,-6.4249,-6.4199,-6.3961,-6.4005,-6.3947,-6.3731,-6.3727,-6.3806,-6.4116,-6.4236,-6.4381,-6.3991,-6.3993,-6.3994,0,-6.6654,-6.6473,-6.6366,-6.6057,-6.5994,-6.5924,-6.5699,-6.5573,-6.5325,-6.5185,-6.5023,-6.4801,-6.4675,-6.4522,-6.434,-6.4308,-6.4204,-6.4075,-6.4073,-6.4035,-6.3869,-6.4082,-6.4421,-6.4442,-6.4015,-6.4014,-6.4012,0,-6.6983,-6.671,-6.6611,-6.6504,-6.6142,-6.6099,-6.5944,-6.5692,-6.5575,-6.5376,-6.5296,-6.5082,-6.4963,-6.4799,-6.4523,-6.4437,-6.4371,-6.4193,-6.4244,-6.4251,-6.4235,-6.4239,-6.4558,-6.4183,-6.4182,-6.4182,-6.4182,0,-6.7192,-6.7136,-6.6755,-6.6693,-6.6621,-6.6327,-6.6261,-6.6077,-6.5858,-6.5748,-6.5477,-6.5379,-6.5024,-6.4882,-6.4664,-6.4546,-6.4494,-6.4372,-6.4313,-6.4393,-6.4408,-6.4314,-6.4294,-6.4187,-6.4186,-6.4185,-6.4184,0,-6.7542,-6.7286,-6.7157,-6.6831,-6.6748,-6.6709,-6.6423,-6.6348,-6.6144,-6.601,-6.5961,-6.5635,-6.5455,-6.5167,-6.4897,-6.4751,-6.4668,-6.4575,-6.4756,-6.4719,-6.4785,-6.4781,-6.5048,-6.5066,-6.469,-6.4694,-6.4697,0,-6.7688,-6.7641,-6.7314,-6.7229,-6.7088,-6.6951,-6.6834,-6.6543,-6.6431,-6.6151,-6.6108,-6.591,-6.5734,-6.5459,-6.5191,-6.4984,-6.4879,-6.4988,-6.4844,-6.4927,-6.4874,-6.4878,-6.4869,-6.5018,-6.5024,-6.5029,-6.5032,0,-6.7974,-6.7853,-6.7701,-6.7507,-6.7379,-6.7208,-6.7023,-6.6966,-6.6632,-6.6518,-6.6338,-6.6205,-6.5937,-6.574,-6.5499,-6.5326,-6.5121,-6.5083,-6.5082,-6.5158,-6.5263,-6.5202,-6.484,-6.5074,-6.507,-6.5067,-6.5065,-6.5063,-6.8221,-6.8167,-6.7931,-6.7771,-6.7605,-6.7441,-6.7356,-6.7148,-6.6996,-6.6763,-6.6599,-6.6429,-6.6181,-6.5837,-6.5679,-6.5535,-6.5443,-6.5444,-6.5443,-6.5446,-6.5474,-6.5296,-6.5489,-6.5488,-6.5486,-6.5485,-6.5484,0,-6.8488,-6.8326,-6.8184,-6.7941,-6.7815,-6.7651,-6.7438,-6.734,-6.7198,-6.6991,-6.683,-6.6622,-6.6432,-6.6157,-6.5944,-6.5881,-6.5782,-6.5834,-6.5831,-6.5795,-6.5569,-6.5589,-6.5919,-6.5919,-6.5919,-6.5919,-6.5919,-6.5919,-6.8612,-6.8511,-6.8364,-6.8176,-6.8008,-6.785,-6.7743,-6.7588,-6.7422,-6.7207,-6.7053,-6.688,-6.6643,-6.6413,-6.623,-6.6152,-6.6083,-6.6165,-6.6058,-6.5851,-6.581,-6.5772,-6.5788,-6.6154,-6.6155,-6.6293,-6.6294,-6.6296]},{"header":{"parameterUnit":"m.s-1","parameterCategory":1,"la1":30.2991,"la2":30.254,"lo1":-89.0895,"lo2":-89.0444,"dy":0.0017,"dx":0.0017,"nx":28,"ny":28,"refTime":"2024-08-22T03:00:00:Z","depth":0,"parameterNumber":3,"parameterNumberName":"V-component_of_WINDS"},"data":[0,0,0,0,0,0,0,0,0,0,0,0,0,0,0,0,0,0,0,0,0,0,0,0,0,0,0,0,0,0,0,0,0,0,0,0,0,0,0,0,0,0,0,0,0,0,0,0,0,0,0,0,0,0,0,0,0,0,-1.23,-1.2298,0,-1.2115,-1.2113,-1.2111,-1.1927,-1.1925,-1.1922,-1.192,-1.1724,-1.1721,-1.1718,0,0,0,0,0,0,0,0,0,0,0,0,0,-1.2491,-1.2488,-1.23,-1.2298,-1.2296,-1.2115,-1.2113,-1.211,-1.1927,-1.1924,-1.1922,-1.1919,-1.1725,-1.1722,-1.1718,0,0,0,0,0,0,0,0,0,0,0,0,0,-1.2367,-1.2487,-1.2301,-1.2183,-1.2171,-1.2116,-1.2113,-1.2109,-1.1928,-1.1924,-1.1921,-1.1917,-1.1726,-1.1722,-1.1718,-1.1762,0,0,-1.1704,-1.1702,0,0,0,0,0,0,0,0,-1.2374,-1.236,-1.2203,-1.2191,-1.2177,-1.204,-1.2108,-1.1993,-1.1929,-1.202,-1.192,-1.1916,-1.1832,-1.1819,-1.1791,-1.1753,-1.1745,-1.1704,-1.1701,-1.1699,-1.1698,0,0,0,0,0,0,0,-1.2383,-1.2367,-1.2227,-1.22,-1.2185,-1.2138,-1.2116,-1.2085,-1.1948,-1.2012,-1.1998,-1.1979,-1.1824,-1.1796,-1.1786,-1.1742,-1.1704,-1.17,-1.1697,-1.1695,-1.1729,-1.1732,0,0,0,0,0,0,-1.241,-1.2375,-1.2232,-1.2221,-1.2269,-1.2137,-1.2113,-1.2088,-1.1948,-1.1923,-1.1982,-1.1971,-1.1806,-1.1791,-1.1778,-1.1819,-1.1699,-1.1695,-1.1692,-1.1726,-1.173,-1.1734,0,0,0,0,0,0,-1.2415,-1.2399,-1.224,-1.2294,-1.2271,-1.2138,-1.2111,-1.2086,-1.2058,-1.1926,-1.19,-1.1979,-1.1802,-1.1784,-1.1768,-1.181,-1.1693,-1.1689,-1.1721,-1.1727,-1.1732,-1.1904,0,0,0,0,0,0,-1.2421,-1.2402,-1.2419,-1.2296,-1.2269,-1.2235,-1.2114,-1.2085,-1.2051,-1.2035,-1.1916,-1.1893,-1.1798,-1.1775,-1.1763,-1.1802,-1.1685,-1.1717,-1.1724,-1.173,-1.1894,-1.1914,-1.1932,0,0,0,0,0,-1.2429,-1.2474,-1.2421,-1.2404,-1.2287,-1.2238,-1.2221,-1.2113,-1.2056,-1.207,-1.1986,-1.1897,-1.1809,-1.1775,-1.176,-1.1798,-1.1714,-1.1722,-1.173,-1.1885,-1.191,-1.1932,0,0,0,0,0,0,-1.2602,-1.2455,-1.2395,-1.2402,-1.2334,-1.2207,-1.2222,-1.2144,-1.2089,-1.2075,-1.1942,-1.1917,-1.1915,-1.1855,-1.182,-1.1833,-1.1748,-1.1754,-1.1872,-1.1895,-1.1914,-1.1927,-1.1682,0,0,0,0,0,-1.2642,-1.2616,-1.2488,-1.2506,-1.2476,-1.2356,-1.233,-1.2253,-1.2176,-1.2146,-1.206,-1.1987,-1.1942,-1.1916,-1.1868,-1.1886,-1.1855,-1.1904,-1.1923,-1.194,-1.1945,-1.1948,-1.1967,-1.176,-1.176,-1.176,0,0,-1.2721,-1.2638,-1.2629,-1.2539,-1.2477,-1.2452,-1.2332,-1.231,-1.2289,-1.2141,-1.212,-1.2056,-1.1965,-1.1966,-1.1962,-1.1916,-1.1996,-1.195,-1.1964,-1.196,-1.1958,-1.1978,-1.1996,-1.1766,-1.1765,-1.1764,0,0,-1.2853,-1.279,-1.2797,-1.2738,-1.2648,-1.2568,-1.257,-1.2455,-1.2407,-1.2385,-1.2273,-1.2246,-1.2173,-1.2112,-1.2073,-1.2185,-1.21,-1.2173,-1.2272,-1.2277,-1.2293,-1.2307,-1.2345,-1.236,-1.218,-1.218,-1.218,0,-1.2963,-1.2922,-1.281,-1.2795,-1.2758,-1.2627,-1.2632,-1.258,-1.2478,-1.2454,-1.2405,-1.2311,-1.2241,-1.2225,-1.2253,-1.2226,-1.2222,-1.2184,-1.2301,-1.2313,-1.2324,-1.2358,-1.2373,-1.2189,-1.2188,-1.2187,-1.2186,0,-1.3061,-1.3034,-1.3051,-1.2958,-1.2922,-1.2918,-1.2804,-1.2782,-1.2709,-1.2634,-1.2612,-1.2525,-1.2456,-1.2447,-1.2375,-1.2421,-1.2395,-1.2326,-1.2237,-1.2355,-1.2385,-1.2397,-1.2203,-1.2199,-1.2197,-1.2194,0,0,-1.3292,-1.314,-1.3147,-1.3103,-1.2995,-1.2971,-1.2961,-1.2896,-1.2878,-1.2813,-1.2799,-1.2742,-1.2677,-1.2632,-1.2552,-1.2557,-1.2649,-1.2485,-1.2481,-1.2516,-1.2691,-1.2742,-1.276,-1.2594,-1.2596,-1.2598,-1.2698,0,-1.3403,-1.3378,-1.3278,-1.3281,-1.3254,-1.3131,-1.3121,-1.3053,-1.2984,-1.2949,-1.2871,-1.2831,-1.275,-1.2722,-1.2722,-1.2638,-1.2681,-1.263,-1.2576,-1.2576,-1.2599,-1.2775,-1.2829,-1.2928,-1.2709,-1.2711,-1.2713,0,-1.3528,-1.3473,-1.3475,-1.3368,-1.3353,-1.3346,-1.3279,-1.3249,-1.3168,-1.3117,-1.3069,-1.2981,-1.296,-1.2882,-1.2851,-1.2818,-1.2791,-1.2747,-1.2748,-1.2735,-1.2649,-1.2765,-1.2957,-1.2971,-1.273,-1.2729,-1.2728,0,-1.3693,-1.362,-1.3611,-1.3578,-1.3453,-1.3452,-1.3399,-1.3316,-1.3284,-1.3225,-1.3202,-1.3142,-1.3108,-1.3062,-1.2959,-1.2911,-1.2939,-1.2852,-1.2893,-1.2896,-1.2901,-1.2902,-1.3089,-1.289,-1.289,-1.289,-1.289,0,-1.3825,-1.383,-1.3684,-1.3678,-1.368,-1.3566,-1.357,-1.3506,-1.3433,-1.3411,-1.3302,-1.3283,-1.315,-1.3116,-1.3035,-1.3021,-1.3007,-1.2963,-1.2941,-1.2971,-1.2976,-1.2948,-1.2937,-1.2894,-1.2893,-1.2892,-1.2891,0,-1.4007,-1.391,-1.3892,-1.3778,-1.3749,-1.3755,-1.3656,-1.3645,-1.3571,-1.3544,-1.3531,-1.3413,-1.3368,-1.3262,-1.3187,-1.3133,-1.3138,-1.31,-1.3166,-1.3151,-1.3198,-1.3194,-1.337,-1.3386,-1.3182,-1.3184,-1.3186,0,-1.4096,-1.4097,-1.3984,-1.3963,-1.3916,-1.3883,-1.3851,-1.3739,-1.3709,-1.3619,-1.3619,-1.3565,-1.3515,-1.3448,-1.3354,-1.3296,-1.3253,-1.332,-1.3244,-1.3274,-1.3251,-1.3251,-1.3249,-1.3335,-1.3338,-1.334,-1.3342,0,-1.4263,-1.4215,-1.4174,-1.4116,-1.4081,-1.403,-1.3972,-1.3961,-1.3834,-1.3806,-1.376,-1.3722,-1.3647,-1.3594,-1.3523,-1.3466,-1.3382,-1.3368,-1.3374,-1.3402,-1.3439,-1.3417,-1.3208,-1.3363,-1.3361,-1.3359,-1.3358,-1.3357,-1.4398,-1.4393,-1.4314,-1.4271,-1.4217,-1.4166,-1.415,-1.4076,-1.4036,-1.3967,-1.3904,-1.3863,-1.3783,-1.3679,-1.3628,-1.3593,-1.3551,-1.356,-1.3562,-1.3565,-1.3578,-1.3449,-1.358,-1.3579,-1.3579,-1.3578,-1.3577,0,-1.4556,-1.45,-1.4462,-1.4387,-1.4353,-1.4283,-1.4215,-1.4191,-1.4158,-1.4092,-1.4046,-1.3993,-1.3942,-1.3846,-1.3785,-1.3776,-1.3736,-1.3763,-1.3761,-1.3749,-1.362,-1.362,-1.3797,-1.3797,-1.3797,-1.3797,-1.3797,-1.3797,-1.4634,-1.4622,-1.4566,-1.4527,-1.4469,-1.4431,-1.4398,-1.435,-1.4297,-1.4243,-1.4201,-1.414,-1.4061,-1.3995,-1.3944,-1.3917,-1.3898,-1.3938,-1.3898,-1.3779,-1.3758,-1.3738,-1.3737,-1.3936,-1.3936,-1.4029,-1.403,-1.4031]}]]